TimeMST,TemperatureF,Dew PointF,Humidity,Sea Level PressureIn,VisibilityMPH,Wind Direction,Wind SpeedMPH,Gust SpeedMPH,PrecipitationIn,Events,Conditions,WindDirDegrees,DateUTC
12:36 AM,12.2,8.6,85,30.22,9.0,Calm,Calm,-,0.00,Snow,Light Snow,0,2012-12-09 07:36:00
12:53 AM,12.9,9.0,84,30.39,8.0,SE,4.6,-,0.00,Snow,Light Snow,140,2012-12-09 07:53:00
1:53 AM,12.0,8.1,84,30.40,9.0,SSE,4.6,-,0.00,,Overcast,150,2012-12-09 08:53:00
2:53 AM,12.0,8.1,84,30.42,10.0,South,3.5,-,N/A,,Overcast,170,2012-12-09 09:53:00
3:53 AM,12.0,7.0,80,30.43,10.0,SSE,6.9,-,N/A,,Overcast,160,2012-12-09 10:53:00
4:53 AM,10.9,7.0,84,30.43,10.0,South,6.9,-,N/A,,Overcast,170,2012-12-09 11:53:00
5:53 AM,10.9,6.1,81,30.45,10.0,South,4.6,-,N/A,,Overcast,170,2012-12-09 12:53:00
6:53 AM,6.1,3.0,87,30.48,10.0,Calm,Calm,-,N/A,,Clear,0,2012-12-09 13:53:00
7:53 AM,7.0,3.9,87,30.49,10.0,SW,5.8,-,N/A,,Clear,230,2012-12-09 14:53:00
8:53 AM,6.1,3.0,87,30.50,10.0,SW,16.1,-,N/A,,Clear,230,2012-12-09 15:53:00
9:53 AM,8.1,3.0,80,30.49,10.0,SW,15.0,-,N/A,,Clear,220,2012-12-09 16:53:00
10:53 AM,10.9,3.9,73,30.46,10.0,SW,20.7,26.5,N/A,,Clear,230,2012-12-09 17:53:00
11:53 AM,14.0,6.1,71,30.40,10.0,SW,17.3,-,N/A,,Clear,230,2012-12-09 18:53:00
12:53 PM,19.0,10.0,68,30.36,10.0,WSW,18.4,25.3,N/A,,Clear,240,2012-12-09 19:53:00
1:53 PM,21.0,10.0,63,30.30,10.0,WSW,17.3,-,N/A,,Clear,240,2012-12-09 20:53:00
2:53 PM,19.9,9.0,62,30.28,10.0,WSW,19.6,27.6,N/A,,Clear,240,2012-12-09 21:53:00
3:53 PM,19.0,9.0,65,30.25,10.0,WSW,21.9,-,N/A,,Clear,240,2012-12-09 22:53:00
4:53 PM,18.0,8.1,65,30.21,10.0,WSW,18.4,-,N/A,,Partly Cloudy,240,2012-12-09 23:53:00
5:53 PM,19.0,8.1,62,30.15,10.0,WSW,19.6,-,N/A,,Partly Cloudy,250,2012-12-10 00:53:00
6:53 PM,19.0,8.1,62,30.14,10.0,WSW,16.1,-,N/A,,Mostly Cloudy,250,2012-12-10 01:53:00
7:53 PM,21.0,9.0,60,30.12,10.0,WSW,17.3,26.5,N/A,,Mostly Cloudy,250,2012-12-10 02:53:00
8:53 PM,21.0,9.0,60,30.08,10.0,WSW,17.3,-,N/A,,Overcast,240,2012-12-10 03:53:00
9:53 PM,21.9,9.0,58,30.06,10.0,WSW,17.3,26.5,N/A,,Overcast,240,2012-12-10 04:53:00
10:53 PM,21.9,10.0,60,30.04,10.0,WSW,19.6,-,N/A,,Overcast,240,2012-12-10 05:53:00
11:53 PM,23.0,10.0,58,30.00,10.0,WSW,21.9,-,N/A,,Overcast,240,2012-12-10 06:53:00